Voltar ao catálogo

ONEWEB-0029

AtivoComunicaçõesPO
NORAD 45445·PAYLOAD·🇬🇧 United Kingdom

Lançado Mar 21, 2020 de Baikonur Cosmodrome

Loading…

Próximas Passagens (próximas 24 horas)

TLE

AtualizadoSource: CelesTrak SupGP

Época: Sep 15, 2026, 00:05 UTC

1 45445C 20020X   26258.00397407 -.00000084  00000+0 -23633-3 0  2580
2 45445  87.8967   3.2105 0002053 100.7323   2.7780 13.11414439    12

Acompanhe ONEWEB-0029 em tempo real com AllMySat

Download on the App Store